Location: Newark
(25.4800°N, 85.7200°E)
Time: 05:05:38
(UTC+00:00)

Explorer 11/Cluster Stage 4 - Pass Details

Date: 22 August 2019
Orbit: 467 x 1260 km, 28.8° (Epoch: 17 September)

Event Time Altitude Azimuth Distance (km) Brightness Sun altitude
Rises 06:25:33 0° 267° (W) 4,189 10.3 76.3°
Reaches altitude 10° 06:28:31 10° 270° (W) 3,232 9.9 76.2°
Maximum altitude 06:36:47 72° 354° (N) 1,264 8.9 75.8°
Drops below altitude 10° 06:44:18 10° 78° (ENE) 2,947 9.6 75.2°
Sets 06:46:53 0° 80° (E) 3,804 10.0 75.0°
